sat.trackr.live / text

‹ back to catalog

STARLINK-30207

NORAD 57407 · 2023-102D

PAYLOAD ACTIVE UNKNOWN

§ Identity

Operator
Country
US
Launch date
2023-07-20
Launch site
AFWTR
Launch vehicle
Mass (kg)
RCS (m²)

Purposes: comms

External: N2YO · Heavens-Above · Gunter

§ Orbital elements

Epoch: 2026-09-20T05:56:07.350720Z

Period
94.27 min
Inclination
43.0038°
Eccentricity
0.0001463
Mean motion
15.27576364 rev/d
Perigee alt
482.1 km
Apogee alt
484.1 km
Semi-major
6,861.2 km
B*
-1.3265e-6
RAAN
215.3155°
Arg perigee
275.5995°
Mean anomaly
84.4690°
Rev number
17,617

§ Raw data

STARLINK-302071 57407U 23102D   26263.24730730 -.00000299  00000+0 -13265-5 0  99992 57407  43.0038 215.3155 0001463 275.5995  84.4690 15.27576364176170

JSON: /api/v1/satellites/57407 · /tle

For live sub-satellite position, see the globe view (requires WebGL).

§ Visibility from observer

Set your observer location to see the next 7 days of passes ≥ 10°. The values pass through the URL so the page stays shareable.

No JS? Fill the form by hand. The geolocation button needs JavaScript.